Flag for Norway Weather past 2 weeks in Hommersåk, Norway

Now
41 °F

Passing clouds.


Feels Like: 41 °F
Forecast: 38 / 43 °F
Wind: 1 mph from Southwest

Location: Stavanger / Sola

Current Time: Mar 29, 2015 at 11:34:51 PM

Latest Report: Mar 29, 2015 at 10:50 PM


Visibility: N/A

Pressure: 29.03 "Hg

Humidity: 93%

Dew point: 39 °F

Location of HommersåkLocation

Historic Weather in Hommersåk — Graph

°F

Hommersåk temperature yesterday

Maximum temperature yesterday: 45 °F (at 10:50 AM)
Minimum temperature yesterday: 36 °F (at 2:50 AM)
Average temperature yesterday: 40 °F

Past Weeks' High & Low Weather Summary

 TemperatureHumidityPressure
High54 °F (Mar 18, 11:50 AM)100% (Mar 19, 3:50 AM)30.74 "Hg (Mar 19, 3:50 AM)
Low27 °F (Mar 15, 6:20 AM)31% (Mar 21, 2:50 PM)29.03 "Hg (Mar 29, 5:50 PM)
Average42 °F77%30.07 "Hg
* Reported Mar 14 8:20 PM — Mar 29 9:50 PM, Hommersåk, Weather by CustomWeather, © 2015

Note: Actual official high and low records may vary slightly from our data, if they occured in-between our weather recording intervals... More about our weather records

Advertising

Hommersåk weather history for previous 24 hours

 ConditionsComfort  
Time TempWeatherWind HumidityBarometerVisibility
9:50 PM
Sun, Mar 29
41 °FPartly cloudy.1 mph93%29.03 "HgN/A
9:20 PM41 °FPartly cloudy.1 mph93%29.03 "HgN/A
8:50 PM41 °FPartly sunny.3 mph93%29.03 "HgN/A
8:20 PM41 °FBroken clouds.5 mph93%29.03 "HgN/A
7:50 PM43 °FBroken clouds.5 mph81%29.03 "HgN/A
7:20 PM43 °FBroken clouds.7 mph81%29.03 "HgN/A
6:50 PM43 °FScattered clouds.7 mph81%29.03 "HgN/A
6:20 PM43 °FBroken clouds.7 mph76%29.03 "HgN/A
5:50 PM45 °FScattered clouds.7 mph76%29.03 "HgN/A
5:20 PM45 °FScattered clouds.6 mph76%29.06 "HgN/A
4:50 PM45 °FBroken clouds.7 mph76%29.06 "HgN/A
4:20 PM45 °FBroken clouds.6 mph76%29.09 "HgN/A
3:50 PM45 °FBroken clouds.8 mph76%29.09 "HgN/A
3:20 PM45 °FPartly sunny.8 mph76%29.09 "HgN/A
2:50 PM45 °FPartly sunny.9 mph76%29.12 "HgN/A
2:20 PM45 °FPartly sunny.9 mph76%29.12 "HgN/A
1:50 PM46 °FPartly sunny.10 mph76%29.12 "HgN/A
1:20 PM45 °FPartly sunny.10 mph81%29.12 "HgN/A
12:50 PM45 °FPartly sunny.10 mph81%29.15 "HgN/A
12:20 PM45 °FPartly sunny.9 mph81%29.15 "HgN/A
11:50 AM45 °FPartly sunny.10 mph87%29.15 "HgN/A
11:20 AM45 °FPartly sunny.9 mph87%29.15 "HgN/A
10:50 AM45 °FBroken clouds.8 mph87%29.15 "HgN/A
10:20 AM43 °FPartly sunny.6 mph93%29.18 "HgN/A
9:50 AM43 °FPartly sunny.8 mph93%29.18 "HgN/A
9:20 AM43 °FDrizzle. Broken clouds.8 mph93%29.18 "Hg6 mi
8:50 AM43 °FBroken clouds.6 mph93%29.18 "HgN/A
8:20 AM43 °FPartly sunny.8 mph93%29.18 "HgN/A
7:50 AM43 °FPartly cloudy.9 mph93%29.21 "HgN/A
7:20 AM41 °FPartly cloudy.7 mph100%29.21 "Hg6 mi
6:50 AM41 °FPassing clouds.6 mph93%29.21 "HgN/A
6:20 AM41 °FPartly cloudy.5 mph93%29.21 "HgN/A
5:50 AM41 °FPassing clouds.6 mph93%29.21 "HgN/A
5:20 AM41 °FPassing clouds.5 mph93%29.21 "HgN/A
4:50 AM43 °FLight rain. Passing clouds.10 mph87%29.21 "HgN/A
3:50 AM41 °FPassing clouds.6 mph93%29.24 "HgN/A
1:50 AM43 °FPassing clouds.6 mph87%29.24 "HgN/A
12:50 AM43 °FPassing clouds.6 mph93%29.21 "Hg6 mi
12:20 AM41 °FPassing clouds.9 mph100%29.21 "Hg4 mi
11:50 PM
Sat, Mar 28
41 °FPassing clouds.12 mph93%29.21 "Hg5 mi
11:20 PM41 °FLight rain. Passing clouds.21 mph87%29.18 "HgN/A
Weather by CustomWeather, © 2015

See weather overviewHow to use our weather pages